Weather History for K8D3 - June, 2014

Change the Weather History Date:

Friday, June 6, 2014

  Actual Average Record
Temperature  
Mean Temperature 58 °F 64 °F  
Max Temperature 66 °F 75 °F 98 °F (1959)
Min Temperature 50 °F 52 °F 33 °F (1953)
Degree Days  
Heating Degree Days 7 3  
Month to date heating degree days 11 23  
Since 1 June heating degree days 11 23  
Since 1 July heating degree days 9066 8244  
Cooling Degree Days 0 2  
Month to date cooling degree days 8 12  
Year to date cooling degree days 69 35  
Since 1 June cooling degree days 8 12  
Growing Degree Days 9 (Base 50)    
Moisture  
Dew Point 50 °F    
Average Humidity 73    
Maximum Humidity 97    
Minimum Humidity 48    
Precipitation  
Precipitation 0.14 in 0.12 in 2.10 in (1942)
Month to date precipitation 0.69 0.73  
Year to date precipitation 9.06 7.71  
Sea Level Pressure  
Sea Level Pressure 29.96 in    
Wind  
Wind Speed 14 mph (North)    
Max Wind Speed 24 mph    
Max Gust Speed 28 mph    
T = Trace of Precipitation, MM = Missing Value Source: NWS Daily Summary

Daily Weather History Graph

Daily Weather History Graph

Search for Another Location

Airport or City:

Trip Planner

Search our weather history database for the weather conditions in past years. The results will help you decide how hot, cold, wet, or windy it might be!

Date:

Astronomy

Jun. 06, 2014 Rise Set
Actual Time 5:39 AM CDT 9:14 PM CDT
Civil Twilight 5:02 AM CDT 9:51 PM CDT
Nautical Twilight 4:12 AM CDT 10:41 PM CDT
Astronomical Twilight 3:06 AM CDT 11:47 PM CDT
Moon 2:15 PM CDT (6/6) 1:52 AM CDT (6/6)
Length of Visible Light 16h 49m
Length of Day
15h 34m
First Quarter, 58% of the Moon is Illuminated
Jun 6
First Quarter
Jun 12
Full
Jun 19
Last Quarter
Jun 27
New
Jul 5
First Quarter

Hourly Weather History & Observations

Time (CDT) Temp. Dew Point Humidity Pressure Visibility Wind Dir Wind Speed Gust Speed Precip Events Conditions
12:56 AM 63.0 °F 60.1 °F 90% 29.81 in - SW 4.6 mph - N/A   Unknown
1:56 AM 61.0 °F 59.0 °F 93% 29.81 in - WNW 5.8 mph - N/A   Unknown
2:56 AM 62.1 °F 55.0 °F 78% 29.82 in - NW 9.2 mph - N/A   Unknown
3:56 AM 60.1 °F 54.0 °F 80% 29.84 in - NNW 9.2 mph - N/A   Unknown
4:56 AM 59.0 °F 54.0 °F 83% 29.87 in - NNW 10.4 mph - N/A   Unknown
5:56 AM 59.0 °F 55.0 °F 87% 29.90 in - NNW 12.7 mph - N/A   Unknown
6:56 AM 59.0 °F 55.0 °F 87% 29.92 in - North 13.8 mph - N/A   Unknown
7:56 AM 61.0 °F 52.0 °F 72% 29.95 in - North 20.7 mph 27.6 mph N/A   Unknown
8:56 AM 62.1 °F 48.0 °F 60% 29.97 in - NNE 21.9 mph 28.8 mph N/A   Unknown
9:56 AM 62.1 °F 44.1 °F 52% 29.98 in - NNE 20.7 mph - N/A   Unknown
10:56 AM 64.0 °F 45.0 °F 50% 29.99 in - North 18.4 mph - N/A   Unknown
11:56 AM 64.0 °F 46.0 °F 52% 29.98 in - North 17.3 mph - N/A   Unknown
12:56 PM 64.0 °F 46.0 °F 52% 29.96 in - NNE 16.1 mph - N/A   Unknown
1:56 PM 63.0 °F 44.1 °F 50% 29.99 in - NNE 16.1 mph - N/A   Unknown
2:56 PM 64.9 °F 46.0 °F 50% 30.00 in - NNE 19.6 mph - N/A   Unknown
3:56 PM 63.0 °F 46.0 °F 54% 30.01 in - NNE 15.0 mph - N/A   Unknown
4:56 PM 57.9 °F 51.1 °F 78% 30.03 in - North 9.2 mph - 0.01 in   Unknown
5:56 PM 57.9 °F 53.1 °F 84% 30.00 in - NNE 10.4 mph - 0.01 in   Unknown
6:56 PM 57.9 °F 51.1 °F 78% 30.00 in - North 9.2 mph - N/A   Unknown
7:56 PM 59.0 °F 52.0 °F 78% 30.00 in - NNE 9.2 mph - N/A   Unknown
8:56 PM 57.0 °F 50.0 °F 77% 30.02 in - North 12.7 mph - N/A   Unknown
9:56 PM 55.9 °F 46.9 °F 72% 30.03 in - North 15.0 mph - N/A   Unknown
10:56 PM 54.0 °F 50.0 °F 86% 30.06 in - North 10.4 mph - 0.02 in   Unknown
11:56 PM 52.0 °F 48.0 °F 86% 30.05 in - North 18.4 mph - 0.09 in   Unknown